Location: Automata Internet Observatory
(34.5060°N, 117.9090°W)
Time: 10:06:11
(UTC-08:00)

Envisat - Visible Passes

Search period start: 24 February 2018 00:00
Search period end: 06 March 2018 00:00
Orbit: 764 x 766 km, 98.2° (Epoch: 24 February)

Date Brightness Start Highest point End Pass type
(mag) Time Alt. Az. Time Alt. Az. Time Alt. Az.
24 Feb 3.1 19:01:41 10° SSE 19:06:34 51° ENE 19:11:28 10° N visible
24 Feb 5.7 20:42:57 10° SW 20:45:49 15° W 20:48:42 10° WNW visible
25 Feb 4.1 18:26:17 10° ESE 18:30:07 22° ENE 18:33:57 10° NNE visible
25 Feb 4.4 20:04:13 10° SSW 20:08:52 36° W 20:13:31 10° NNW visible
26 Feb 2.9 19:27:01 10° SSE 19:32:05 87° WSW 19:37:11 10° NNW visible
27 Feb 3.4 18:50:49 10° SE 18:55:29 39° ENE 19:00:12 10° N visible
27 Feb 5.4 20:30:59 10° SW 20:34:36 20° W 20:38:14 10° NW visible
28 Feb 4.4 18:15:50 10° ESE 18:19:05 17° ENE 18:22:22 10° NNE visible
28 Feb 3.9 19:52:50 10° S 19:57:41 46° W 20:02:34 10° NNW visible
01 Mar 2.8 19:15:56 10° SSE 19:20:58 73° ENE 19:26:02 10° N visible
02 Mar 3.7 18:40:01 10° SE 18:44:26 31° ENE 18:48:50 10° N visible
02 Mar 5.0 20:19:15 10° SSW 20:23:23 25° W 20:27:33 10° NW visible
03 Mar 3.4 19:41:32 10° S 19:46:32 61° W 19:51:33 10° NNW visible
04 Mar 3.0 19:04:55 10° SSE 19:09:52 56° ENE 19:14:50 10° N visible
04 Mar 5.8 20:46:44 10° WSW 20:49:10 13° W 20:51:38 10° WNW visible
05 Mar 4.0 18:29:22 10° ESE 18:33:23 24° ENE 18:37:25 10° NNE visible
05 Mar 4.6 20:07:40 10° SSW 20:12:11 32° W 20:16:44 10° NW visible
